Weather History for Delta, CO

Change the Weather History Date:

Tuesday, June 5, 2012

  Actual Average (KMTJ) Record (KMTJ)
Temperature  
Mean Temperature 76 °F 65 °F  
Max Temperature 93 °F 81 °F 93 °F (2006)
Min Temperature 58 °F 49 °F 37 °F (1999)
Degree Days  
Heating Degree Days 0 3  
Month to date heating degree days 15  
Since 1 June heating degree days 15  
Since 1 July heating degree days 6179  
Cooling Degree Days 10 3  
Month to date cooling degree days 11  
Year to date cooling degree days 28  
Since 1 June cooling degree days 11  
Growing Degree Days 26 (Base 50)    
Moisture  
Dew Point 29 °F    
Average Humidity 21    
Maximum Humidity 51    
Minimum Humidity 5    
Precipitation  
Precipitation 0.00 in 0.03 in 0.23 in (2008)
Month to date precipitation 0.12  
Year to date precipitation 4.42  
Sea Level Pressure  
Sea Level Pressure 29.87 in    
Wind  
Wind Speed 8 mph ()    
Max Wind Speed 28 mph    
Max Gust Speed 38 mph    
Visibility 10.0 miles    
Events      
T = Trace of Precipitation, MM = Missing Value Source: Averaged Metar Reports

Daily Weather History Graph

Daily Weather History Graph

Search for Another Location

Airport:

Trip Planner

Search our weather history database for the weather conditions in past years. The results will help you decide how hot, cold, wet, or windy it might be!

Date:

Astronomy

Jun. 05, 2012 Rise Set
Actual Time 5:47 AM MDT 8:34 PM MDT
Civil Twilight 5:16 AM MDT 9:06 PM MDT
Nautical Twilight 4:36 AM MDT 9:45 PM MDT
Astronomical Twilight 3:51 AM MDT 10:30 PM MDT
Moon 10:02 PM MDT (6/5) 7:02 AM MDT (6/5)
Length of Visible Light 15h 49m
Length of Day
14h 46m
Full, 98% of the Moon is Illuminated
Jun 5
Full
Jun 11
Last Quarter
Jun 19
New
Jun 26
First Quarter
Jul 3
Full

Hourly Weather History & Observations

Time (MDT) Temp. Dew Point Humidity Pressure Visibility Wind Dir Wind Speed Gust Speed Precip Events Conditions
12:15 AM 68.4 °F 40.1 °F 36% 29.96 in 10.0 mi NNE 5.8 mph - N/A   Clear
12:35 AM 68.9 °F 39.2 °F 34% 29.97 in 10.0 mi ENE 5.8 mph - N/A   Clear
1:15 AM 72.3 °F 38.5 °F 29% 29.96 in 10.0 mi NE 12.7 mph 17.3 mph N/A   Clear
1:35 AM 72.5 °F 38.3 °F 29% 29.95 in 10.0 mi NE 11.5 mph 16.1 mph N/A   Clear
1:55 AM 72.1 °F 37.9 °F 29% 29.94 in 10.0 mi NNE 10.4 mph - N/A   Clear
2:15 AM 70.5 °F 38.1 °F 31% 29.94 in 10.0 mi NNE 8.1 mph - N/A   Clear
2:35 AM 67.1 °F 40.6 °F 38% 29.94 in 10.0 mi NE 6.9 mph - N/A   Clear
2:55 AM 66.2 °F 40.6 °F 39% 29.94 in 10.0 mi NNE 4.6 mph - N/A   Clear
3:15 AM 66.4 °F 39.2 °F 37% 29.94 in 10.0 mi ENE 3.5 mph - N/A   Clear
3:35 AM 63.5 °F 36.5 °F 37% 29.94 in 10.0 mi NE 6.9 mph - N/A   Clear
3:55 AM 63.9 °F 37.0 °F 37% 29.94 in 10.0 mi NE 6.9 mph - N/A   Clear
4:15 AM 63.3 °F 36.9 °F 37% 29.93 in 10.0 mi East 6.9 mph - N/A   Clear
4:35 AM 62.1 °F 36.7 °F 39% 29.94 in 10.0 mi SE 4.6 mph - N/A   Clear
4:55 AM 61.9 °F 37.4 °F 40% 29.94 in 10.0 mi East 4.6 mph - N/A   Clear
5:15 AM 60.3 °F 38.5 °F 44% 29.94 in 10.0 mi North 3.5 mph - N/A   Clear
5:35 AM 60.1 °F 37.4 °F 43% 29.95 in 10.0 mi Calm Calm - N/A   Clear
5:55 AM 59.7 °F 37.9 °F 44% 29.95 in 10.0 mi North 5.8 mph - N/A   Clear
6:15 AM 59.9 °F 40.5 °F 49% 29.95 in 10.0 mi North 5.8 mph - N/A   Clear
6:35 AM 58.8 °F 40.6 °F 51% 29.95 in 10.0 mi NNE 4.6 mph - N/A   Clear
6:55 AM 59.2 °F 37.2 °F 44% 29.95 in 10.0 mi East 3.5 mph - N/A   Clear
7:15 AM 60.8 °F 36.9 °F 41% 29.94 in 10.0 mi NE 5.8 mph - N/A   Clear
7:35 AM 63.1 °F 37.4 °F 39% 29.94 in 10.0 mi NNE 3.5 mph - N/A   Clear
7:55 AM 66.4 °F 36.9 °F 34% 29.94 in 10.0 mi Calm Calm - N/A   Clear
8:15 AM 68.5 °F 37.4 °F 32% 29.95 in 10.0 mi Calm Calm - N/A   Clear
8:35 AM 68.2 °F 41.9 °F 38% 29.94 in 10.0 mi SE 3.5 mph - N/A   Clear
8:55 AM 71.1 °F 39.9 °F 32% 29.93 in 10.0 mi SE 3.5 mph - N/A   Clear
9:15 AM 73.0 °F 41.2 °F 32% 29.93 in 10.0 mi SE 4.6 mph - N/A   Clear
9:35 AM 74.3 °F 41.0 °F 30% 29.92 in 10.0 mi Calm Calm - N/A   Clear
9:55 AM 75.7 °F 40.6 °F 28% 29.92 in 10.0 mi Calm Calm - N/A   Clear
10:15 AM 78.1 °F 40.6 °F 26% 29.92 in 10.0 mi Calm Calm - N/A   Clear
10:35 AM 81.0 °F 37.4 °F 21% 29.91 in 10.0 mi SW 3.5 mph - N/A   Clear
10:55 AM 82.6 °F 36.3 °F 19% 29.91 in 10.0 mi Calm Calm - N/A   Clear
11:15 AM 83.8 °F 33.6 °F 16% 29.90 in 10.0 mi Calm Calm - N/A   Clear
11:35 AM 83.8 °F 33.1 °F 16% 29.89 in 10.0 mi West 3.5 mph - N/A   Clear
11:55 AM 87.1 °F 29.1 °F 12% 29.87 in 10.0 mi South 13.8 mph 23.0 mph N/A   Clear
12:15 PM 89.8 °F 23.0 °F 9% 29.86 in 10.0 mi SSW 23.0 mph 31.1 mph N/A   Clear
12:35 PM 90.7 °F 18.1 °F 7% 29.86 in 10.0 mi SSW 21.9 mph 31.1 mph N/A   Clear
12:55 PM 90.9 °F 19.9 °F 8% 29.85 in 10.0 mi SW 20.7 mph 31.1 mph N/A   Clear
1:15 PM 91.4 °F 20.1 °F 7% 29.85 in 10.0 mi SSW 18.4 mph 36.8 mph N/A   Clear
1:35 PM 91.0 °F 19.2 °F 7% 29.85 in 10.0 mi SW 23.0 mph 29.9 mph N/A   Clear
1:55 PM 91.0 °F 20.3 °F 8% 29.83 in 10.0 mi SW 15.0 mph 27.6 mph N/A   Clear
2:15 PM 91.8 °F 20.1 °F 7% 29.83 in 10.0 mi SW 18.4 mph 32.2 mph N/A   Clear
2:35 PM 92.5 °F 20.7 °F 7% 29.81 in 10.0 mi SW 20.7 mph 29.9 mph N/A   Clear
2:55 PM 92.8 °F 21.0 °F 7% 29.80 in 10.0 mi SSW 23.0 mph 29.9 mph N/A   Clear
3:15 PM 93.4 °F 19.9 °F 7% 29.80 in 10.0 mi SSW 18.4 mph 25.3 mph N/A   Clear
3:35 PM 93.2 °F 17.4 °F 6% 29.79 in 10.0 mi SSW 25.3 mph 36.8 mph N/A   Clear
3:55 PM 93.2 °F 18.3 °F 7% 29.79 in 10.0 mi South 23.0 mph 32.2 mph N/A   Clear
4:15 PM 93.0 °F 19.0 °F 7% 29.79 in 10.0 mi South 21.9 mph 26.5 mph N/A   Clear
4:35 PM 93.4 °F 19.4 °F 7% 29.78 in 10.0 mi South 12.7 mph 24.2 mph N/A   Clear
4:55 PM 93.2 °F 20.5 °F 7% 29.77 in 10.0 mi South 11.5 mph 25.3 mph N/A   Clear
5:15 PM 93.2 °F 21.2 °F 7% 29.77 in 10.0 mi SSW 19.6 mph 29.9 mph N/A   Clear
5:35 PM 92.8 °F 16.7 °F 6% 29.77 in 10.0 mi SW 16.1 mph 32.2 mph N/A   Clear
5:55 PM 93.0 °F 18.1 °F 7% 29.76 in 10.0 mi SW 23.0 mph 33.4 mph N/A   Clear
6:15 PM 92.1 °F 12.6 °F 5% 29.75 in 10.0 mi SSW 27.6 mph 38.0 mph N/A   Clear
6:35 PM 91.6 °F 12.4 °F 5% 29.75 in 10.0 mi SW 26.5 mph 33.4 mph N/A   Clear
6:55 PM 90.5 °F 15.1 °F 6% 29.75 in 10.0 mi SW 19.6 mph 32.2 mph N/A   Clear
7:15 PM 89.4 °F 16.3 °F 7% 29.74 in 10.0 mi SW 17.3 mph 27.6 mph N/A   Clear
7:35 PM 88.2 °F 18.7 °F 8% 29.76 in 10.0 mi SSW 11.5 mph 20.7 mph N/A   Clear
7:55 PM 87.1 °F 19.4 °F 8% 29.76 in 10.0 mi South 16.1 mph 23.0 mph N/A   Clear
8:15 PM 86.0 °F 19.9 °F 9% 29.76 in 10.0 mi South 10.4 mph 18.4 mph N/A   Clear
8:55 PM 81.9 °F 17.6 °F 9% 29.77 in 10.0 mi SSW 9.2 mph - N/A   Clear
9:15 PM 80.2 °F 17.4 °F 10% 29.78 in 10.0 mi SSW 6.9 mph - N/A   Clear
9:35 PM 78.8 °F 17.4 °F 10% 29.79 in 10.0 mi SSW 6.9 mph - N/A   Clear
10:35 PM 75.4 °F 17.8 °F 11% 29.82 in 10.0 mi WSW 4.6 mph - N/A   Clear
10:55 PM 73.6 °F 18.1 °F 12% 29.83 in 10.0 mi SW 4.6 mph - N/A   Clear
11:15 PM 73.4 °F 18.3 °F 12% 29.82 in 10.0 mi WSW 5.8 mph - N/A   Clear
11:35 PM 71.1 °F 18.0 °F 13% 29.83 in 10.0 mi Calm Calm - N/A   Clear
11:55 PM 69.4 °F 24.6 °F 19% 29.84 in 10.0 mi NNE 4.6 mph - N/A   Clear